FW2584 Weather Reports


Display with metric or nautical units.
time (UTC)temp
F
wind
direction
speed
MPH
gust
MPH
rain 1hr
in
rain 24hr
in
rain mn
in
humidity
%
barometer
mb
20260510234532 76 0 0.0 0.0 0.00 0.00 0.00 64 1014.7
20260510234023 77 0 0.0 0.0 0.00 0.00 0.00 62 1014.6
20260510233524 77 0 0.0 0.0 0.00 0.00 0.00 62 1014.5
20260510233042 77 0 0.0 0.0 0.00 0.00 0.00 62 1014.6
20260510232523 78 0 0.0 0.0 0.00 0.00 0.00 61 1014.4
20260510232023 78 0 0.0 0.0 0.00 0.00 0.00 60 1014.3
20260510231538 79 0 0.0 0.0 0.00 0.00 0.00 61 1014.3
20260510231021 79 0 0.0 0.0 0.00 0.00 0.00 60 1014.3
20260510230523 79 0 0.0 0.0 0.00 0.00 0.00 58 1014.2
20260510230038 80 0 0.0 1.0 0.00 0.00 0.00 58 1014.1
20260510225521 80 0 0.0 1.0 0.00 0.00 0.00 56 1014.1
20260510225023 81 0 0.0 1.0 0.00 0.00 0.00 55 1014.1
20260510224533 81 0 0.0 1.0 0.00 0.00 0.00 56 1014.1
20260510224024 81 0 0.0 0.0 0.00 0.00 0.00 56 1014.0
20260510223521 81 0 0.0 0.0 0.00 0.00 0.00 55 1014.1
20260510223033 82 0 0.0 3.0 0.00 0.00 0.00 55 1014.1
20260510222523 82 0 0.0 3.0 0.00 0.00 0.00 52 1014.0
20260510222022 83 273 0.0 3.0 0.00 0.00 0.00 52 1014.0
20260510221534 83 0 0.0 0.0 0.00 0.00 0.00 51 1014.0
20260510221024 83 0 0.0 1.0 0.00 0.00 0.00 50 1013.9
20260510220522 84 0 0.0 1.0 0.00 0.00 0.00 46 1014.0
20260510220041 84 0 0.0 2.0 0.00 0.00 0.00 46 1014.0
20260510215522 85 0 0.0 2.0 0.00 0.00 0.00 46 1013.9
20260510215023 85 0 0.0 1.0 0.00 0.00 0.00 52 1013.8
20260510214545 85 0 0.0 3.0 0.00 0.00 0.00 47 1013.9
20260510214022 85 0 0.0 3.0 0.00 0.00 0.00 45 1013.9
20260510213520 85 0 0.0 3.0 0.00 0.00 0.00 45 1014.0
20260510213035 85 0 0.0 4.0 0.00 0.00 0.00 42 1013.9
20260510212522 86 0 0.0 6.0 0.00 0.00 0.00 43 1013.8
20260510212024 87 271 0.0 6.0 0.00 0.00 0.00 44 1013.8
20260510211535 87 0 0.0 1.0 0.00 0.00 0.00 43 1013.7
20260510211023 86 0 0.0 1.0 0.00 0.00 0.00 42 1013.7
20260510210524 87 0 0.0 3.0 0.00 0.00 0.00 42 1013.7
20260510210035 87 0 0.0 3.0 0.00 0.00 0.00 42 1013.7
20260510205521 87 0 0.0 3.0 0.00 0.00 0.00 42 1013.7
20260510205023 87 0 0.0 1.0 0.00 0.00 0.00 43 1013.7
20260510204541 87 0 0.0 1.0 0.00 0.00 0.00 44 1013.6
20260510204026 87 0 0.0 1.0 0.00 0.00 0.00 46 1013.6
20260510203521 86 0 0.0 4.0 0.00 0.00 0.00 43 1013.7
20260510203037 86 0 0.0 4.0 0.00 0.00 0.00 44 1013.8
20260510202522 86 0 1.0 4.0 0.00 0.00 0.00 45 1013.8
20260510202026 86 0 0.0 4.0 0.00 0.00 0.00 45 1013.8
20260510201534 85 0 0.0 1.0 0.00 0.00 0.00 48 1013.8
20260510201023 85 0 0.0 1.0 0.00 0.00 0.00 54 1013.9
20260510200525 86 0 0.0 1.0 0.00 0.00 0.00 49 1013.8
20260510200041 87 273 0.0 1.0 0.00 0.00 0.00 47 1013.9
20260510195523 87 0 0.0 4.0 0.00 0.00 0.00 46 1013.8
20260510195022 86 0 0.0 4.0 0.00 0.00 0.00 50 1014.0
20260510194536 86 272 0.0 4.0 0.00 0.00 0.00 47 1014.0
20260510194026 85 0 0.0 1.0 0.00 0.00 0.00 51 1014.0
20260510193524 85 0 0.0 1.0 0.00 0.00 0.00 57 1014.0
20260510193035 84 0 0.0 1.0 0.00 0.00 0.00 60 1014.0
20260510192521 84 0 0.0 1.0 0.00 0.00 0.00 62 1014.0
20260510192023 83 0 0.0 1.0 0.00 0.00 0.00 63 1014.2
20260510191538 83 0 0.0 1.0 0.00 0.00 0.00 63 1014.1
20260510191024 82 0 0.0 1.0 0.00 0.00 0.00 59 1014.2
20260510190525 83 0 0.0 1.0 0.00 0.00 0.00 65 1014.1
20260510190037 82 0 0.0 1.0 0.00 0.00 0.00 60 1014.2
20260510185523 82 0 0.0 1.0 0.00 0.00 0.00 56 1014.3
20260510185023 82 0 0.0 1.0 0.00 0.00 0.00 59 1014.4
20260510184533 81 0 0.0 0.0 0.00 0.00 0.00 66 1014.3
20260510184023 81 0 0.0 1.0 0.00 0.00 0.00 61 1014.4
20260510183522 83 0 0.0 2.0 0.00 0.00 0.00 55 1014.4
20260510183037 84 0 0.0 2.0 0.00 0.00 0.00 57 1014.5
20260510182520 83 0 0.0 6.0 0.00 0.00 0.00 57 1014.4
20260510182021 83 0 0.0 6.0 0.00 0.00 0.00 56 1014.5
20260510181601 83 0 0.0 3.0 0.00 0.00 0.00 58 1014.5
20260510181021 83 0 0.0 3.0 0.00 0.00 0.00 58 1014.6
20260510180524 82 0 0.0 1.0 0.00 0.00 0.00 66 1014.6
20260510180059 80 0 0.0 0.0 0.00 0.00 0.00 62 1014.7
20260510175523 80 0 0.0 0.0 0.00 0.00 0.00 66 1014.8
20260510175023 79 0 0.0 2.0 0.00 0.00 0.00 70 1014.8
20260510174534 80 0 0.0 2.0 0.00 0.00 0.00 68 1014.7
20260510174023 81 0 0.0 1.0 0.00 0.00 0.00 64 1014.9
20260510173522 81 0 0.0 3.0 0.00 0.00 0.00 65 1014.8
20260510173035 82 0 0.0 3.0 0.00 0.00 0.00 60 1015.0
20260510172521 82 0 0.0 2.0 0.00 0.00 0.00 63 1015.1
20260510172023 81 273 0.0 2.0 0.00 0.00 0.00 65 1015.1
20260510171540 81 0 0.0 1.0 0.00 0.00 0.00 66 1015.2
20260510171021 81 0 0.0 4.0 0.00 0.00 0.00 64 1015.1
20260510170521 82 0 0.0 4.0 0.00 0.00 0.00 64 1015.2
20260510170041 82 0 0.0 3.0 0.00 0.00 0.00 62 1015.3
20260510165522 82 0 1.0 3.0 0.00 0.00 0.00 65 1015.3
20260510165024 82 0 0.0 1.0 0.00 0.00 0.00 66 1015.5
20260510164539 82 0 0.0 3.0 0.00 0.00 0.00 66 1015.4
20260510164021 81 0 0.0 3.0 0.00 0.00 0.00 65 1015.5
20260510163523 80 0 1.0 3.0 0.00 0.00 0.00 65 1015.5
20260510163034 80 0 0.0 1.0 0.00 0.00 0.00 68 1015.5
20260510162522 79 0 0.0 1.0 0.00 0.00 0.00 69 1015.6
20260510162022 78 0 0.0 1.0 0.00 0.00 0.00 71 1015.7
20260510161544 79 0 0.0 4.0 0.00 0.00 0.00 69 1015.7
20260510161021 80 0 0.0 4.0 0.00 0.00 0.00 69 1015.7
20260510160523 80 0 0.0 1.0 0.00 0.00 0.00 70 1015.7
20260510160039 80 0 0.0 1.0 0.00 0.00 0.00 71 1015.7
20260510155524 80 0 0.0 4.0 0.00 0.00 0.00 71 1015.7
20260510155022 80 0 0.0 4.0 0.00 0.00 0.00 71 1015.7
20260510154539 80 270 0.0 2.0 0.00 0.00 0.00 72 1015.7
20260510154021 79 269 0.0 6.0 0.00 0.00 0.00 74 1015.7
20260510153521 78 0 0.0 6.0 0.00 0.00 0.00 74 1015.8
20260510153040 78 0 0.0 3.0 0.00 0.00 0.00 71 1015.7
20260510152524 79 0 0.0 3.0 0.00 0.00 0.00 72 1015.7
20260510152026 78 0 0.0 3.0 0.00 0.00 0.00 75 1015.7
20260510151540 77 0 0.0 1.0 0.00 0.00 0.00 75 1015.7
20260510151023 76 0 0.0 1.0 0.00 0.00 0.00 77 1015.7
20260510150526 77 0 0.0 1.0 0.00 0.00 0.00 74 1015.7
20260510150047 77 0 0.0 4.0 0.00 0.00 0.00 77 1015.6
20260510145522 77 0 1.0 4.0 0.00 0.00 0.00 77 1015.5
20260510145022 76 0 0.0 1.0 0.00 0.00 0.00 78 1015.5
20260510144537 76 0 0.0 1.0 0.00 0.00 0.00 78 1015.5
20260510144023 76 0 0.0 1.0 0.00 0.00 0.00 79 1015.6
20260510143523 75 0 0.0 1.0 0.00 0.00 0.00 81 1015.6
20260510143040 74 0 0.0 5.0 0.00 0.00 0.00 82 1015.6
20260510142523 74 0 0.0 5.0 0.00 0.00 0.00 83 1015.5
20260510142022 73 243 0.0 4.0 0.00 0.00 0.00 83 1015.5
20260510141536 73 223 0.0 3.0 0.00 0.00 0.00 84 1015.5
20260510141023 72 0 0.0 2.0 0.00 0.00 0.00 85 1015.4
20260510140522 72 0 0.0 2.0 0.00 0.00 0.00 87 1015.4
20260510140033 71 0 0.0 3.0 0.00 0.00 0.00 86 1015.5
20260510135523 71 220 0.0 3.0 0.00 0.00 0.00 87 1015.4
20260510135024 71 0 0.0 3.0 0.00 0.00 0.00 88 1015.4
20260510134536 70 0 0.0 2.0 0.00 0.00 0.00 89 1015.5
20260510134023 70 0 0.0 2.0 0.00 0.00 0.00 90 1015.5
20260510133522 70 0 0.0 1.0 0.00 0.00 0.00 89 1015.4
20260510133034 69 0 0.0 5.0 0.00 0.00 0.00 90 1015.3
20260510132522 69 0 0.0 5.0 0.00 0.00 0.00 91 1015.3
20260510132020 69 217 0.0 5.0 0.00 0.00 0.00 92 1015.4
20260510131535 68 0 0.0 2.0 0.00 0.00 0.00 93 1015.3
20260510131022 68 0 0.0 2.0 0.00 0.00 0.00 93 1015.3
20260510130528 68 0 0.0 1.0 0.00 0.00 0.00 94 1015.3
20260510130039 68 0 0.0 1.0 0.00 0.00 0.00 95 1015.4
20260510125522 67 0 0.0 1.0 0.00 0.00 0.00 96 1015.4
20260510125022 67 0 0.0 1.0 0.00 0.00 0.00 96 1015.5
20260510124532 67 0 0.0 1.0 0.00 0.00 0.00 97 1015.5
20260510124026 66 0 0.0 2.0 0.00 0.00 0.00 98 1015.4
20260510123523 66 0 0.0 2.0 0.00 0.00 0.00 99 1015.3
20260510123036 66 0 0.0 1.0 0.00 0.00 0.00 99 1015.3
20260510122519 65 0 0.0 1.0 0.00 0.00 0.00 99 1015.2
20260510122022 65 0 0.0 0.0 0.00 0.00 0.00 99 1015.2
20260510121534 65 0 0.0 1.0 0.00 0.00 0.00 99 1015.3
20260510121020 65 0 0.0 1.0 0.00 0.00 0.00 100 1015.3
20260510120527 64 0 0.0 0.0 0.00 0.00 0.00 99 1015.3
20260510120035 64 0 0.0 0.0 0.00 0.00 0.00 99 1015.2
20260510115524 64 0 0.0 0.0 0.00 0.00 0.00 99 1015.2
20260510115027 64 0 0.0 0.0 0.00 0.00 0.00 99 1015.1
20260510114534 64 0 0.0 0.0 0.00 0.00 0.00 99 1015.1
20260510114023 63 0 0.0 0.0 0.00 0.00 0.00 99 1015.0
20260510113522 63 0 0.0 0.0 0.00 0.00 0.00 99 1015.0
20260510113036 63 0 0.0 0.0 0.00 0.00 0.00 99 1014.8
20260510112521 63 0 0.0 0.0 0.00 0.00 0.00 99 1014.7
20260510112021 62 0 0.0 0.0 0.00 0.00 0.00 99 1014.4
20260510111538 62 0 0.0 0.0 0.00 0.00 0.00 99 1014.5
20260510111020 62 0 0.0 0.0 0.00 0.00 0.00 99 1014.5
20260510110522 62 0 0.0 0.0 0.00 0.00 0.00 99 1014.4
20260510110045 62 0 0.0 0.0 0.00 0.00 0.00 99 1014.3
20260510105522 62 0 0.0 0.0 0.00 0.00 0.00 99 1014.3
20260510105021 62 0 0.0 0.0 0.00 0.00 0.00 99 1014.2
20260510104538 62 0 0.0 0.0 0.00 0.00 0.00 99 1014.2
20260510104025 62 0 0.0 0.0 0.00 0.00 0.00 99 1014.1
20260510103522 62 0 0.0 0.0 0.00 0.00 0.00 99 1013.9
20260510103038 62 0 0.0 0.0 0.00 0.00 0.00 99 1013.8
20260510102520 62 0 0.0 0.0 0.00 0.00 0.00 99 1013.5
20260510102024 62 0 0.0 0.0 0.00 0.00 0.00 99 1013.5
20260510101533 62 0 0.0 0.0 0.00 0.00 0.00 99 1013.6
20260510101022 62 0 0.0 0.0 0.00 0.00 0.00 99 1013.5
20260510100520 62 0 0.0 0.0 0.00 0.00 0.00 99 1013.3
20260510100035 62 0 0.0 0.0 0.00 0.00 0.00 99 1013.3
20260510095527 62 0 0.0 0.0 0.00 0.00 0.00 99 1013.2
20260510095022 62 0 0.0 0.0 0.00 0.00 0.00 99 1013.2
20260510094544 62 0 0.0 0.0 0.00 0.00 0.00 99 1013.2
20260510094023 62 0 0.0 0.0 0.00 0.00 0.00 99 1013.2
20260510093520 62 0 0.0 0.0 0.00 0.00 0.00 99 1013.2
20260510093040 62 0 0.0 0.0 0.00 0.00 0.00 99 1013.1
20260510092523 62 0 0.0 0.0 0.00 0.00 0.00 99 1013.0
20260510092023 62 0 0.0 0.0 0.00 0.00 0.00 99 1012.9
20260510091541 62 0 0.0 0.0 0.00 0.00 0.00 99 1012.8
20260510091023 62 0 0.0 0.0 0.00 0.00 0.00 99 1012.9
20260510090524 62 0 0.0 0.0 0.00 0.00 0.00 99 1012.8
20260510090037 62 0 0.0 0.0 0.00 0.00 0.00 99 1012.8
20260510085522 62 0 0.0 0.0 0.00 0.00 0.00 99 1012.7
20260510085022 62 0 0.0 0.0 0.00 0.00 0.00 99 1012.7
20260510084535 63 0 0.0 0.0 0.00 0.00 0.00 99 1012.6
20260510084021 63 0 0.0 0.0 0.00 0.00 0.00 99 1012.5
20260510083524 63 0 0.0 0.0 0.00 0.00 0.00 99 1012.6
20260510083049 63 0 0.0 0.0 0.00 0.00 0.00 99 1012.5
20260510082522 63 0 0.0 0.0 0.00 0.00 0.00 99 1012.7
20260510082027 63 0 0.0 0.0 0.00 0.00 0.00 99 1012.5
20260510081542 63 0 0.0 0.0 0.00 0.00 0.00 99 1012.7
20260510081023 63 0 0.0 0.0 0.00 0.00 0.00 99 1012.5
20260510080522 63 0 0.0 0.0 0.00 0.00 0.00 99 1012.4
20260510080037 63 0 0.0 0.0 0.00 0.00 0.00 99 1012.4
20260510075523 63 0 0.0 0.0 0.00 0.00 0.00 98 1012.4
20260510075020 63 0 0.0 0.0 0.00 0.00 0.00 98 1012.5
20260510074546 63 0 0.0 0.0 0.00 0.00 0.00 98 1012.4
20260510074024 63 0 0.0 0.0 0.00 0.00 0.00 99 1012.4
20260510073522 63 0 0.0 0.0 0.00 0.00 0.00 98 1012.3
20260510073038 63 0 0.0 0.0 0.00 0.00 0.00 98 1012.4
20260510072522 63 0 0.0 0.0 0.00 0.00 0.00 98 1012.3
20260510072020 63 0 0.0 0.0 0.00 0.00 0.00 98 1012.3
20260510071539 63 0 0.0 0.0 0.00 0.00 0.00 98 1012.3
20260510071022 63 0 0.0 0.0 0.00 0.00 0.00 98 1012.2
20260510070519 63 0 0.0 0.0 0.00 0.00 0.00 98 1012.3
20260510070034 63 0 0.0 0.0 0.00 0.00 0.00 98 1012.4
20260510065523 63 0 0.0 0.0 0.00 0.00 0.00 98 1012.3
20260510065027 63 0 0.0 0.0 0.00 0.00 0.00 98 1012.2
20260510064537 63 0 0.0 0.0 0.00 0.00 0.00 98 1012.2
20260510064021 63 0 0.0 0.0 0.00 0.00 0.00 98 1012.2
20260510063522 63 0 0.0 0.0 0.00 0.00 0.00 98 1012.4
20260510063035 63 0 0.0 0.0 0.00 0.00 0.00 98 1012.4
20260510062521 63 0 0.0 0.0 0.00 0.00 0.00 98 1012.5
20260510062019 63 0 0.0 0.0 0.00 0.00 0.00 98 1012.5
20260510061535 63 0 0.0 0.0 0.00 0.00 0.00 98 1012.4
20260510061021 63 0 0.0 0.0 0.00 0.00 0.00 98 1012.5
20260510060525 63 0 0.0 0.0 0.00 0.00 0.00 98 1012.4
20260510060041 63 0 0.0 0.0 0.00 0.00 0.00 98 1012.5
20260510055522 64 0 0.0 0.0 0.00 0.00 0.00 98 1012.4
20260510055023 63 0 0.0 0.0 0.00 0.00 0.00 98 1012.4
20260510054539 63 0 0.0 0.0 0.00 0.00 0.00 98 1012.4
20260510054026 63 0 0.0 0.0 0.00 0.00 0.00 98 1012.5
20260510053522 63 0 0.0 0.0 0.00 0.00 0.00 98 1012.5
20260510053038 63 0 0.0 0.0 0.00 0.00 0.00 98 1012.4
20260510052523 63 0 0.0 0.0 0.00 0.00 0.00 98 1012.7
20260510052024 63 0 0.0 0.0 0.00 0.00 0.00 98 1012.8
20260510051535 63 0 0.0 0.0 0.00 0.00 0.00 98 1012.7
20260510051019 63 0 0.0 0.0 0.00 0.00 0.00 98 1012.7
20260510050520 63 0 0.0 0.0 0.00 0.00 0.00 98 1012.6
20260510050037 63 0 0.0 0.0 0.00 0.00 0.00 98 1012.7
20260510045524 63 0 0.0 0.0 0.00 0.00 0.00 98 1012.6
20260510045021 63 0 0.0 0.0 0.00 0.00 0.00 98 1012.8
20260510044532 63 0 0.0 0.0 0.00 0.00 0.00 98 1012.9
20260510044022 63 0 0.0 0.0 0.00 0.00 0.00 98 1012.7
20260510043522 63 0 0.0 0.0 0.00 0.00 0.00 98 1012.7
20260510043035 63 0 0.0 0.0 0.00 0.00 0.00 98 1012.6
20260510042523 63 0 0.0 0.0 0.00 0.00 0.00 97 1012.5
20260510042022 63 0 0.0 0.0 0.00 0.00 0.00 97 1012.4
20260510041541 64 0 0.0 0.0 0.00 0.00 0.00 97 1012.3
20260510041023 64 0 0.0 0.0 0.00 0.00 0.00 98 1012.4
20260510040522 64 0 0.0 0.0 0.00 0.00 0.00 98 1012.3
20260510040036 64 0 0.0 0.0 0.00 0.00 0.00 97 1012.5
20260510035523 64 0 0.0 0.0 0.00 0.00 0.00 97 1012.4
20260510035021 64 0 0.0 0.0 0.00 0.00 0.00 97 1012.3
20260510034535 64 0 0.0 0.0 0.00 0.00 0.00 97 1012.3
20260510034022 64 0 0.0 0.0 0.00 0.00 0.00 97 1012.4
20260510033527 64 0 0.0 0.0 0.00 0.00 0.00 97 1012.5
20260510033032 64 0 0.0 0.0 0.00 0.00 0.00 97 1012.6
20260510032523 64 0 0.0 0.0 0.00 0.00 0.00 97 1012.5
20260510032020 65 0 0.0 0.0 0.00 0.00 0.00 97 1012.7
20260510031534 65 0 0.0 0.0 0.00 0.00 0.00 97 1012.7
20260510031021 65 0 0.0 0.0 0.00 0.00 0.00 97 1012.8
20260510030523 65 0 0.0 0.0 0.00 0.00 0.00 97 1012.7
20260510030049 65 0 0.0 0.0 0.00 0.00 0.00 97 1012.7
20260510025523 65 0 0.0 0.0 0.00 0.00 0.00 96 1012.7
20260510025023 65 0 0.0 0.0 0.00 0.00 0.00 96 1012.7
20260510024534 65 0 0.0 0.0 0.00 0.00 0.00 96 1012.7
20260510024023 65 0 0.0 0.0 0.00 0.00 0.00 96 1012.8
20260510023522 65 0 0.0 0.0 0.00 0.00 0.00 96 1012.7
20260510023035 65 0 0.0 0.0 0.00 0.00 0.00 96 1012.6
20260510022521 66 0 0.0 0.0 0.00 0.00 0.00 96 1012.5
20260510022023 66 0 0.0 0.0 0.00 0.00 0.00 96 1012.7
20260510021535 66 0 0.0 0.0 0.00 0.00 0.00 96 1012.5
20260510021022 66 0 0.0 0.0 0.00 0.00 0.00 95 1012.5
20260510020524 66 0 0.0 0.0 0.00 0.00 0.00 95 1012.5
20260510020035 66 0 0.0 0.0 0.00 0.00 0.00 95 1012.4
20260510015522 66 0 0.0 0.0 0.00 0.00 0.00 95 1012.3
20260510015023 66 0 0.0 0.0 0.00 0.00 0.00 94 1012.3
20260510014538 67 0 0.0 0.0 0.00 0.00 0.00 94 1012.1
20260510014020 67 0 0.0 0.0 0.00 0.00 0.00 94 1012.0
20260510013522 67 0 0.0 0.0 0.00 0.00 0.00 94 1011.9
20260510013036 67 0 0.0 0.0 0.00 0.00 0.00 94 1011.8
20260510012521 67 0 0.0 0.0 0.00 0.00 0.00 94 1011.8
20260510012023 68 0 0.0 0.0 0.00 0.00 0.00 93 1011.7
20260510011533 68 0 0.0 0.0 0.00 0.00 0.00 94 1011.7
20260510011023 68 0 0.0 0.0 0.00 0.00 0.00 93 1011.7
20260510010522 68 0 0.0 0.0 0.00 0.00 0.00 92 1011.7
20260510010035 68 0 0.0 0.0 0.00 0.00 0.00 92 1011.5
20260510005522 68 0 0.0 0.0 0.00 0.00 0.00 92 1011.4
20260510005021 68 0 0.0 0.0 0.00 0.00 0.00 91 1011.3
20260510004542 69 0 0.0 0.0 0.00 0.00 0.00 91 1011.2
20260510004022 69 0 0.0 0.0 0.00 0.00 0.00 91 1011.2
20260510003522 69 0 0.0 0.0 0.00 0.00 0.00 91 1011.1
20260510003041 69 0 0.0 0.0 0.00 0.00 0.00 91 1011.0
20260510002523 70 0 0.0 0.0 0.00 0.00 0.00 90 1010.9
20260510002023 70 0 0.0 0.0 0.00 0.00 0.00 90 1011.0
20260510001533 70 0 0.0 0.0 0.00 0.00 0.00 90 1011.0
20260510001020 70 0 0.0 0.0 0.00 0.00 0.00 89 1011.0
20260510000521 70 0 0.0 0.0 0.00 0.00 0.00 89 1011.1
20260510000036 70 0 0.0 0.0 0.00 0.00 0.00 89 1010.9
20260509235522 71 0 0.0 0.0 0.00 0.00 0.00 89 1010.9
20260509235022 71 0 0.0 0.0 0.00 0.00 0.00 89 1010.8
20260509234539 71 0 0.0 0.0 0.00 0.00 0.00 89 1010.8